Wind_Speed
47 48 48 49 50 50 50 49 49 48 48 48 47 48 49 49 49 48 47 46 46 46 47 46 46 45 45 45 45 46 46 46 45 44 44 44 45 45 46 46 46 46 46
47 47 47 47 47 47 46 46 46 46 46 46 46 47 47 47 47 46 45 45 45 45 45 45 45 46 45 45 45 45 45 45 45 43 43 43 42 42 42 43 42 43 43
46 46 45 45 44 44 43 44 45 45 44 44 44 44 45 45 45 44 43 43 42 42 42 43 43 43 43 43 43 42 42 42 42 42 41 40 40 39 40 41 41 41 41
44 44 44 43 42 41 41 43 43 43 43 43 43 43 43 42 41 41 40 41 41 40 41 42 43 43 42 42 41 39 39 39 39 40 39 38 38 38 39 39 39 40 40
42 42 41 41 41 41 40 40 40 40 41 41 41 42 40 39 38 39 39 39 39 39 39 40 40 40 39 38 38 37 36 36 37 37 37 37 36 36 37 38 39 39 39
41 40 40 41 40 39 39 38 39 39 39 39 40 39 38 37 37 37 37 37 37 37 36 36 35 36 36 35 35 35 35 34 35 36 35 35 34 34 36 38 38 37 37
40 40 40 40 40 39 39 39 40 38 37 38 38 37 36 35 35 36 36 35 34 33 33 33 33 33 33 33 33 32 32 32 34 34 33 34 34 35 35 35 36 36 36
39 39 40 40 39 38 38 38 38 37 36 36 35 34 32 32 32 32 33 33 32 31 31 32 32 31 30 31 31 30 29 31 32 32 32 33 34 34 34 34 34 34 34
37 38 38 38 37 36 35 35 35 35 35 33 32 32 31 30 30 31 31 30 30 29 29 29 30 28 28 29 29 29 29 30 30 30 31 31 32 32 32 33 32 32 31
38 38 38 37 36 35 35 35 34 34 33 31 30 30 30 30 29 29 29 29 28 28 28 28 28 28 28 28 29 30 30 30 31 30 30 29 29 30 30 30 30 29 30
37 37 37 37 36 35 35 35 34 32 31 30 30 29 29 28 29 28 28 28 28 28 28 28 28 28 28 28 29 30 30 29 30 30 29 29 28 28 28 28 28 28 29
37 37 37 37 37 36 35 33 32 31 30 30 29 28 28 28 27 27 27 27 28 28 27 27 27 28 28 29 29 29 28 27 28 28 27 27 27 27 27 27 27 28 27
35 35 36 36 35 34 33 31 31 30 29 29 28 26 26 26 26 26 26 27 27 27 27 27 27 28 28 27 27 27 27 25 25 25 25 25 26 26 26 26 26 26 26
33 33 33 33 32 31 30 30 29 28 27 26 26 25 24 25 25 26 26 26 26 26 27 27 27 26 26 25 25 26 26 25 25 24 24 24 25 25 25 25 25 25 25
31 30 29 29 28 28 28 28 27 26 26 25 24 24 24 23 24 24 24 25 25 25 24 24 24 23 24 24 24 24 24 24 23 22 22 23 24 23 24 24 24 23 24
29 28 27 26 26 26 26 26 25 25 24 24 23 23 22 21 21 22 22 22 22 22 21 21 22 22 22 21 21 21 21 21 20 20 20 21 21 21 21 22 22 22 21
26 26 26 25 25 25 25 24 24 23 23 23 22 21 20 19 19 19 19 20 20 19 19 18 19 18 18 18 19 19 19 19 19 19 19 20 19 19 20 20 20 19 19
24 24 24 24 24 23 23 23 23 22 22 22 21 21 20 19 19 19 19 18 17 17 17 16 16 16 16 17 17 18 18 18 18 18 18 18 18 18 18 18 18 17 17
22 22 22 21 21 21 21 21 21 21 21 21 20 19 18 18 18 17 17 17 17 16 16 16 16 17 16 16 16 17 17 17 18 17 17 16 16 16 16 16 15 15 15
20 20 20 19 19 19 19 19 19 19 19 18 18 17 17 16 16 15 15 16 15 15 15 15 15 16 16 16 16 16 16 16 16 16 15 15 15 15 15 14 14 14 13
18 18 17 17 16 16 16 15 15 15 16 16 16 16 16 15 15 14 14 14 14 14 14 14 14 14 15 15 14 14 13 13 14 14 13 13 13 13 12 12 12 11 11
16 15 14 14 13 13 13 13 13 13 14 14 14 14 14 14 13 13 13 12 12 12 12 12 13 13 13 13 13 12 12 12 12 12 12 11 11 10 10 10 9 9 10
13 13 12 12 12 11 11 11 11 11 12 12 12 13 13 12 12 12 11 11 11 11 11 11 11 11 12 12 12 12 11 11 11 11 10 9 9 9 9 9 9 9 9
13 12 12 11 11 11 11 11 11 11 11 11 11 11 11 11 11 11 11 10 10 10 10 9 9 9 10 10 10 10 9 9 9 9 9 9 9 8 8 7 7 8 8
13 12 12 11 10 10 10 10 9 9 9 9 9 9 9 10 10 10 10 10 10 10 9 9 9 9 9 9 9 9 9 9 9 8 8 7 7 6 6 6 6 6 7
13 12 12 11 11 10 10 9 9 8 8 8 8 8 9 9 9 9 9 9 10 10 9 9 9 9 9 10 9 9 9 8 8 8 7 6 5 5 5 5 5 5 5
Wind_Direction
275 276 277 278 278 278 278 277 275 275 275 276 275 274 273 273 272 271 270 269 267 265 264 264 263 263 264 266 267 267 266 265 264 264 265 265 266 267 268 268 269 270 271
276 277 278 278 278 277 277 275 274 275 277 277 276 274 273 273 271 270 268 267 266 265 263 263 262 262 265 267 267 267 265 263 264 264 264 264 266 269 270 269 271 272 272
277 278 278 278 278 277 276 275 275 275 276 277 276 275 274 273 271 268 267 267 266 266 264 263 261 262 265 266 264 264 264 263 263 263 263 264 266 269 271 271 273 274 274
278 278 277 278 278 277 276 276 276 276 276 277 276 275 274 272 269 267 268 267 267 267 267 264 262 263 266 264 262 263 263 261 262 263 264 265 268 270 271 272 273 274 275
277 277 276 277 276 276 276 277 277 278 278 278 276 275 273 271 269 268 268 267 266 267 267 265 264 265 266 263 261 261 262 260 260 262 264 266 268 271 272 272 274 276 276
275 275 276 276 276 276 277 277 278 279 280 278 277 275 272 270 269 268 269 269 268 267 266 263 262 263 264 263 261 261 260 259 259 262 265 265 267 269 271 273 275 277 278
275 275 275 277 278 278 278 278 279 280 280 279 277 274 271 270 269 268 269 270 269 267 264 262 261 261 263 262 261 261 259 260 261 261 262 263 265 268 272 275 277 279 279
275 276 277 279 278 277 277 278 278 278 279 279 276 274 271 269 268 269 268 268 268 267 263 262 261 264 264 261 258 258 258 259 260 261 263 265 266 270 273 276 277 278 278
274 277 278 278 276 276 277 279 279 277 278 277 275 273 269 267 267 267 267 267 267 265 263 262 261 263 263 260 257 256 257 258 259 261 265 267 269 271 273 275 277 278 278
275 277 277 277 277 276 277 278 277 277 275 274 274 272 269 266 266 266 266 266 266 264 262 261 261 262 262 260 257 257 259 260 260 263 266 268 270 271 273 275 276 277 278
275 276 277 277 277 277 277 277 277 276 274 273 273 271 270 268 265 265 266 266 264 262 260 259 258 259 260 259 259 259 260 260 259 262 265 267 269 271 273 275 277 278 277
275 276 276 276 276 276 276 276 274 273 272 272 272 271 269 269 267 266 267 267 266 263 259 258 257 259 261 261 260 260 260 261 260 262 265 267 269 271 273 275 277 278 278
275 275 276 275 275 275 275 274 272 272 270 270 271 269 267 267 268 270 270 268 266 262 258 259 260 260 262 262 260 258 259 260 261 263 264 267 269 271 273 275 275 276 278
277 276 274 274 273 272 273 273 272 271 270 270 269 266 268 267 267 269 269 268 266 264 263 261 258 258 259 259 258 256 258 260 262 264 264 266 269 270 272 273 274 277 279
277 276 275 273 271 270 270 271 271 270 270 268 266 266 268 265 265 267 267 266 264 263 261 259 256 256 258 258 256 257 257 259 260 261 265 265 267 270 272 274 276 279 281
275 274 274 272 271 271 270 270 271 270 268 266 265 265 265 264 263 264 263 263 263 263 260 258 256 256 257 256 255 254 255 255 258 261 264 265 268 271 273 275 277 279 281
273 273 273 272 270 270 268 268 267 266 264 265 265 265 265 265 265 264 263 263 261 259 257 256 253 251 252 251 251 252 252 253 255 260 263 265 267 272 273 274 276 278 281
274 275 274 272 270 269 267 266 265 264 264 263 263 263 264 264 263 263 263 260 258 255 252 252 250 247 247 248 249 250 252 253 255 259 262 264 266 270 271 273 275 277 280
276 276 273 272 270 269 266 265 264 264 264 263 260 259 260 260 261 260 258 256 257 254 249 247 245 245 246 247 248 250 251 253 255 257 258 260 263 266 268 273 276 278 282
278 276 273 271 270 270 269 266 265 264 264 261 258 256 257 258 258 257 255 253 253 251 247 245 244 242 243 245 248 250 251 253 252 250 252 256 261 265 268 271 275 281 282
277 275 273 272 270 270 269 267 264 260 259 259 257 255 256 256 255 252 249 249 250 248 246 242 239 239 242 245 247 249 248 248 245 246 251 256 260 265 268 271 275 278 281
273 271 270 270 269 269 268 266 263 260 260 257 254 253 254 254 252 247 245 244 244 240 238 237 238 239 242 243 245 244 241 239 241 246 252 255 257 259 263 269 272 277 285
270 268 267 268 270 270 266 263 262 261 259 256 253 252 249 248 245 239 239 238 235 233 233 236 240 243 243 240 240 238 234 234 237 238 242 247 250 254 260 268 275 280 285
266 265 265 267 268 267 265 261 260 258 255 253 251 248 242 239 238 234 231 229 227 229 232 235 237 237 234 231 227 225 223 224 226 230 238 246 248 254 260 268 275 278 282
262 261 260 261 263 265 264 261 256 253 249 246 244 240 237 233 231 228 224 224 226 229 231 235 234 229 224 219 217 218 220 219 219 226 234 237 241 250 257 265 272 276 283
260 258 256 257 259 263 262 256 254 251 243 238 232 230 229 228 226 225 223 221 222 226 227 227 225 218 213 209 211 213 211 212 218 221 224 230 240 250 258 266 270 273 281
Height
5586 5584 5582 5580 5577 5575 5573 5571 5570 5569 5569 5567 5566 5564 5563 5562 5562 5561 5562 5562 5563 5564 5565 5567 5569 5570 5572 5573 5574 5575 5576 5578 5581 5587 5588 5590 5591 5591 5592 5592 5593 5594 5595
5574 5572 5569 5567 5564 5562 5560 5559 5558 5557 5556 5555 5553 5552 5551 5550 5550 5549 5550 5550 5551 5552 5553 5555 5557 5558 5560 5561 5562 5563 5565 5567 5570 5573 5577 5578 5579 5579 5580 5581 5581 5582 5582
5561 5560 5558 5555 5553 5551 5549 5548 5547 5546 5545 5544 5541 5540 5539 5539 5538 5538 5539 5539 5540 5541 5542 5544 5546 5547 5549 5550 5551 5552 5554 5556 5559 5561 5564 5566 5568 5568 5569 5570 5570 5570 5571
5550 5548 5546 5544 5542 5540 5539 5538 5536 5535 5534 5532 5531 5530 5529 5528 5528 5528 5528 5529 5530 5531 5532 5533 5535 5536 5537 5538 5540 5542 5544 5546 5549 5551 5553 5556 5557 5558 5559 5560 5560 5560 5561
5539 5537 5536 5534 5532 5530 5529 5527 5526 5524 5523 5521 5520 5519 5518 5518 5518 5518 5518 5519 5520 5521 5522 5523 5524 5525 5526 5528 5530 5533 5534 5536 5539 5541 5543 5546 5547 5548 5549 5550 5550 5551 5550
5529 5528 5526 5524 5523 5521 5519 5518 5516 5514 5513 5511 5510 5509 5508 5508 5508 5508 5509 5509 5511 5512 5513 5513 5514 5516 5517 5519 5521 5523 5525 5528 5530 5532 5534 5536 5538 5539 5539 5540 5541 5541 5542
5520 5518 5517 5515 5514 5512 5510 5508 5506 5505 5503 5502 5500 5499 5498 5498 5499 5499 5500 5500 5502 5503 5504 5505 5506 5507 5509 5511 5513 5514 5516 5518 5521 5523 5525 5527 5529 5530 5531 5531 5531 5532 5532
5510 5509 5507 5506 5504 5502 5500 5498 5497 5495 5494 5492 5491 5490 5489 5490 5490 5490 5491 5492 5493 5494 5495 5497 5498 5499 5501 5502 5504 5506 5508 5510 5512 5515 5517 5519 5520 5521 5521 5522 5522 5522 5522
5501 5499 5498 5496 5494 5493 5491 5490 5488 5487 5486 5484 5482 5482 5481 5481 5482 5482 5483 5484 5485 5487 5488 5488 5490 5491 5493 5494 5496 5498 5501 5503 5505 5507 5508 5510 5511 5512 5512 5513 5513 5513 5514
5492 5490 5489 5487 5485 5484 5483 5481 5480 5478 5477 5476 5475 5474 5474 5474 5475 5475 5475 5476 5478 5479 5480 5481 5482 5483 5485 5486 5489 5491 5493 5495 5497 5499 5500 5501 5503 5504 5504 5504 5505 5505 5506
5482 5481 5480 5478 5476 5475 5474 5473 5471 5470 5469 5468 5468 5467 5467 5467 5467 5467 5468 5469 5470 5472 5473 5474 5475 5476 5478 5480 5481 5483 5485 5487 5489 5491 5493 5494 5496 5497 5497 5497 5498 5498 5498
5473 5472 5471 5469 5467 5466 5465 5464 5463 5462 5461 5461 5461 5460 5460 5460 5460 5461 5461 5462 5463 5464 5466 5467 5469 5470 5471 5473 5474 5476 5477 5479 5482 5484 5485 5487 5489 5490 5490 5491 5491 5491 5490
5464 5463 5462 5460 5459 5458 5457 5456 5455 5454 5454 5453 5453 5453 5453 5453 5453 5454 5454 5455 5456 5457 5459 5460 5462 5463 5464 5466 5467 5469 5470 5472 5475 5477 5478 5480 5481 5483 5483 5484 5484 5484 5483
5455 5454 5452 5451 5450 5449 5449 5448 5447 5446 5446 5446 5446 5446 5446 5446 5447 5447 5448 5448 5449 5450 5451 5453 5455 5456 5458 5459 5461 5462 5464 5467 5468 5470 5472 5473 5475 5475 5476 5477 5477 5477 5477
5446 5445 5444 5443 5442 5442 5441 5440 5439 5439 5439 5439 5439 5439 5439 5440 5440 5441 5441 5442 5443 5444 5445 5447 5448 5450 5452 5453 5455 5457 5459 5461 5463 5464 5466 5467 5468 5469 5470 5470 5471 5471 5471
5438 5437 5436 5435 5435 5434 5433 5433 5432 5432 5432 5432 5432 5432 5433 5434 5434 5435 5435 5436 5437 5439 5440 5441 5443 5444 5446 5448 5450 5452 5453 5456 5458 5459 5460 5461 5463 5464 5464 5465 5465 5465 5465
5430 5429 5428 5428 5427 5426 5426 5426 5426 5426 5425 5425 5426 5426 5427 5428 5429 5429 5430 5431 5432 5433 5435 5436 5438 5440 5442 5443 5445 5447 5449 5451 5453 5454 5455 5456 5457 5458 5459 5460 5460 5460 5459
5422 5421 5421 5420 5419 5419 5419 5419 5419 5420 5420 5420 5420 5421 5422 5423 5423 5424 5425 5426 5428 5429 5430 5432 5433 5435 5437 5439 5441 5443 5445 5447 5448 5449 5450 5452 5453 5454 5454 5455 5455 5455 5455
5415 5414 5413 5413 5412 5412 5412 5412 5413 5413 5413 5414 5415 5416 5416 5417 5419 5420 5421 5422 5423 5425 5426 5427 5429 5431 5433 5435 5437 5439 5441 5442 5444 5445 5446 5448 5449 5450 5450 5450 5450 5450 5450
5408 5407 5407 5407 5407 5406 5406 5406 5406 5407 5408 5408 5409 5410 5411 5413 5414 5415 5416 5418 5419 5420 5422 5424 5425 5427 5429 5431 5433 5435 5437 5438 5439 5441 5442 5444 5445 5445 5446 5446 5446 5446 5446
5402 5402 5401 5401 5401 5401 5401 5401 5401 5402 5403 5404 5405 5406 5407 5409 5410 5412 5413 5414 5415 5417 5418 5420 5422 5424 5426 5428 5430 5431 5433 5434 5436 5437 5439 5440 5441 5441 5442 5442 5443 5443 5443
5397 5397 5397 5397 5397 5397 5396 5397 5397 5398 5398 5399 5401 5402 5403 5405 5406 5408 5409 5410 5412 5413 5415 5417 5419 5420 5422 5424 5426 5428 5429 5431 5433 5434 5435 5436 5437 5438 5439 5439 5440 5440 5440
5393 5392 5392 5392 5393 5393 5393 5393 5394 5394 5395 5396 5397 5398 5400 5401 5402 5404 5406 5407 5409 5411 5412 5414 5416 5418 5419 5421 5423 5425 5426 5428 5430 5431 5433 5434 5435 5436 5436 5437 5437 5437 5437
5389 5389 5389 5389 5389 5389 5390 5390 5390 5391 5392 5393 5394 5395 5396 5398 5399 5401 5403 5405 5406 5408 5410 5412 5414 5415 5417 5419 5420 5422 5424 5426 5428 5429 5430 5432 5433 5433 5434 5435 5435 5435 5435
5385 5385 5385 5386 5386 5386 5387 5387 5388 5388 5389 5390 5391 5392 5394 5395 5396 5398 5400 5402 5404 5406 5408 5410 5411 5413 5415 5417 5418 5420 5422 5424 5426 5427 5428 5429 5431 5431 5432 5433 5433 5433 5433
5381 5381 5382 5382 5383 5383 5384 5385 5385 5386 5387 5388 5389 5391 5392 5393 5395 5397 5398 5400 5402 5404 5406 5408 5409 5411 5413 5415 5417 5419 5421 5423 5424 5425 5427 5428 5429 5430 5430 5431 5431 5431 5431